Location: Burgwalden
(48.2830°N, 10.7576°E)
Time: 01:18:18
(UTC+00:00)

NOSS 2-3 (D) - Pass Details

Date: 26 September 2023
Orbit: 506 x 1696 km, 63.3° (Epoch: 06 November)

Event Time Altitude Azimuth Distance (km) Brightness Sun altitude
Exits shadow 02:23:33 22° 317° (NW) 1,861 5.8 -26.9°
Maximum altitude 02:27:37 84° 231° (SW) 1,050 4.5 -26.4°
Drops below altitude 10° 02:35:33 10° 144° (SE) 3,322 7.3 -25.2°
Sets 02:38:47 0° 144° (SE) 4,463 8.0 -24.8°
